Location: Bondula
(6.3703°N, 10.6756°W)
Time: 19:57:08
(UTC+00:00)

Centaur AC-119 - Pass Details

Date: 22 October 2019
Orbit: 233 x 14316 km, 26.8° (Epoch: 17 November)

Event Time Altitude Azimuth Distance (km) Brightness Sun altitude
Exits shadow 04:16:17 34° 70° (ENE) 1,190 4.3 -33.3°
Drops below altitude 10° 04:22:29 10° 105° (ESE) 3,892 7.5 -31.8°
Sets 04:29:19 0° 111° (ESE) 6,759 9.0 -30.1°
